[[{"header":{"parameterUnit":"m.s-1","parameterCategory":1,"la1":30.2991,"la2":30.254,"lo1":-89.0895,"lo2":-89.0444,"dy":0.0017,"dx":0.0017,"nx":28,"ny":28,"refTime":"2023-08-03T03:00:00:Z","depth":0,"parameterNumber":2,"parameterNumberName":"U-component_of_WINDS"},"data":[0,0,0,0,0,0,0,0,0,0,0,0,0,0,0,0,0,0,0,0,0,0,0,0,0,0,0,0,0,0,0,0,0,0,0,0,0,0,0,0,0,0,0,0,0,0,0,0,0,0,0,0,0,0,0,0,0,0,-0.595,-0.5949,0,-0.5864,-0.5863,-0.5862,-0.5789,-0.5788,-0.5787,-0.5786,-0.5698,-0.5696,-0.5695,0,0,0,0,0,0,0,0,0,0,0,0,0,-0.6054,-0.6052,-0.595,-0.5949,-0.5948,-0.5864,-0.5863,-0.5861,-0.5789,-0.5788,-0.5787,-0.5786,-0.5698,-0.5696,-0.5695,0,0,0,0,0,0,0,0,0,0,0,0,0,-0.5992,-0.6052,-0.595,-0.5902,-0.5896,-0.5864,-0.5862,-0.5861,-0.5789,-0.5788,-0.5787,-0.5786,-0.5699,-0.5697,-0.5694,-0.5703,0,0,-0.5687,-0.5686,0,0,0,0,0,0,0,0,-0.5996,-0.5988,-0.591,-0.5905,-0.5899,-0.5836,-0.5866,-0.5808,-0.5789,-0.583,-0.5786,-0.5785,-0.5745,-0.5738,-0.5725,-0.5699,-0.5695,-0.5687,-0.5685,-0.5684,-0.5683,0,0,0,0,0,0,0,-0.6,-0.5992,-0.5916,-0.5909,-0.5902,-0.5885,-0.5874,-0.5855,-0.5795,-0.5826,-0.5821,-0.5812,-0.5741,-0.5727,-0.5722,-0.5694,-0.5687,-0.5684,-0.5683,-0.5682,-0.5672,-0.5673,0,0,0,0,0,0,-0.6012,-0.5996,-0.5919,-0.5913,-0.5945,-0.5884,-0.5872,-0.5857,-0.5795,-0.5784,-0.5813,-0.5809,-0.5732,-0.5725,-0.5719,-0.5726,-0.5684,-0.5682,-0.568,-0.567,-0.5672,-0.5673,0,0,0,0,0,0,-0.6014,-0.6006,-0.5922,-0.5953,-0.5941,-0.5883,-0.5867,-0.5856,-0.5842,-0.5785,-0.5774,-0.5809,-0.5731,-0.5722,-0.5708,-0.5722,-0.5681,-0.5678,-0.5669,-0.5671,-0.5672,-0.5739,0,0,0,0,0,0,-0.6018,-0.6007,-0.6009,-0.5954,-0.594,-0.5913,-0.5868,-0.5855,-0.5838,-0.5832,-0.5779,-0.5769,-0.5729,-0.5712,-0.5705,-0.5717,-0.5677,-0.5668,-0.567,-0.5672,-0.5736,-0.5743,-0.575,0,0,0,0,0,-0.6021,-0.6031,-0.601,-0.6001,-0.5941,-0.5913,-0.5905,-0.586,-0.5839,-0.5842,-0.5805,-0.577,-0.5721,-0.5711,-0.5703,-0.5715,-0.5666,-0.5669,-0.5672,-0.5732,-0.5742,-0.5749,0,0,0,0,0,0,-0.609,-0.6023,-0.5998,-0.5991,-0.5958,-0.5901,-0.5903,-0.5871,-0.5844,-0.5839,-0.5784,-0.5773,-0.5764,-0.5738,-0.5728,-0.572,-0.5689,-0.569,-0.5738,-0.5746,-0.5753,-0.576,-0.5675,0,0,0,0,0,-0.6104,-0.6087,-0.6029,-0.6028,-0.6013,-0.5961,-0.5947,-0.5915,-0.5879,-0.5865,-0.5827,-0.5794,-0.5771,-0.5757,-0.5733,-0.5731,-0.5719,-0.5736,-0.5743,-0.5749,-0.5751,-0.5749,-0.5756,-0.5682,-0.5682,-0.5682,0,0,-0.6134,-0.6095,-0.6087,-0.6041,-0.6012,-0.5996,-0.595,-0.5934,-0.5922,-0.5862,-0.5847,-0.5818,-0.5777,-0.577,-0.5765,-0.5748,-0.5768,-0.5752,-0.5757,-0.5756,-0.5752,-0.5759,-0.5766,-0.5684,-0.5683,-0.5683,0,0,-0.6179,-0.6147,-0.6143,-0.6115,-0.6072,-0.6038,-0.6037,-0.5985,-0.5964,-0.5947,-0.5903,-0.5887,-0.5848,-0.5821,-0.5803,-0.5839,-0.5806,-0.5833,-0.5869,-0.5868,-0.5874,-0.5879,-0.5893,-0.5899,-0.5835,-0.5835,-0.5835,0,-0.6221,-0.6194,-0.6145,-0.6132,-0.6114,-0.606,-0.6056,-0.6031,-0.5983,-0.5971,-0.5953,-0.5904,-0.5873,-0.5859,-0.5868,-0.5854,-0.5852,-0.5839,-0.5877,-0.5882,-0.5886,-0.5898,-0.5903,-0.5838,-0.5838,-0.5837,-0.5837,0,-0.6248,-0.623,-0.6232,-0.6187,-0.6169,-0.616,-0.6111,-0.6098,-0.6068,-0.6035,-0.602,-0.598,-0.5948,-0.5942,-0.5912,-0.5924,-0.5915,-0.5888,-0.5855,-0.5897,-0.5908,-0.5912,-0.5843,-0.5842,-0.5841,-0.584,0,0,-0.6334,-0.6262,-0.6264,-0.6243,-0.6192,-0.6178,-0.6168,-0.6136,-0.6126,-0.6095,-0.6085,-0.6054,-0.6029,-0.6008,-0.5975,-0.5974,-0.6007,-0.5947,-0.5945,-0.596,-0.6018,-0.604,-0.6046,-0.5984,-0.5985,-0.5986,-0.6022,0,-0.6371,-0.635,-0.6306,-0.6298,-0.6282,-0.6231,-0.6222,-0.619,-0.616,-0.6142,-0.6108,-0.6087,-0.6055,-0.6042,-0.6039,-0.6003,-0.6018,-0.6,-0.5976,-0.5975,-0.5988,-0.6052,-0.6074,-0.611,-0.6026,-0.6027,-0.6027,0,-0.6412,-0.6384,-0.6375,-0.6326,-0.6318,-0.6311,-0.6278,-0.6262,-0.6225,-0.6203,-0.618,-0.6143,-0.613,-0.61,-0.6082,-0.6071,-0.6058,-0.604,-0.604,-0.6036,-0.6004,-0.6051,-0.6121,-0.6127,-0.6033,-0.6033,-0.6032,0,-0.6477,-0.6437,-0.6427,-0.641,-0.6353,-0.6349,-0.6325,-0.6287,-0.6271,-0.6243,-0.6232,-0.6203,-0.6187,-0.6166,-0.6122,-0.6105,-0.6109,-0.6076,-0.6091,-0.6093,-0.6095,-0.6096,-0.6165,-0.6086,-0.6086,-0.6086,-0.6086,0,-0.6524,-0.6521,-0.6455,-0.6449,-0.6444,-0.6394,-0.6391,-0.6362,-0.6328,-0.6316,-0.627,-0.6259,-0.6202,-0.6185,-0.6151,-0.6142,-0.6135,-0.6117,-0.6109,-0.6122,-0.6124,-0.6113,-0.611,-0.6087,-0.6087,-0.6086,-0.6086,0,-0.6596,-0.6552,-0.6537,-0.6484,-0.6471,-0.647,-0.6424,-0.6416,-0.6383,-0.6368,-0.6362,-0.631,-0.6288,-0.6243,-0.6208,-0.6185,-0.6184,-0.6168,-0.6197,-0.6191,-0.621,-0.6209,-0.6275,-0.6282,-0.6198,-0.6199,-0.62,0,-0.6629,-0.6626,-0.6572,-0.6561,-0.6538,-0.652,-0.6504,-0.6455,-0.644,-0.6398,-0.6396,-0.637,-0.6346,-0.6313,-0.6273,-0.6246,-0.6229,-0.6254,-0.6225,-0.6239,-0.6231,-0.6232,-0.6232,-0.6261,-0.6262,-0.6263,-0.6264,0,-0.6694,-0.6672,-0.665,-0.6621,-0.6603,-0.6578,-0.655,-0.6543,-0.6487,-0.6473,-0.645,-0.6432,-0.6396,-0.6372,-0.6339,-0.6314,-0.6281,-0.6274,-0.6276,-0.629,-0.6307,-0.6299,-0.6216,-0.6272,-0.6271,-0.6271,-0.627,-0.627,-0.6748,-0.6743,-0.6705,-0.6682,-0.6656,-0.6631,-0.6622,-0.6588,-0.6568,-0.6535,-0.6507,-0.6487,-0.6451,-0.6403,-0.6381,-0.6365,-0.6348,-0.6351,-0.6352,-0.6354,-0.636,-0.631,-0.6358,-0.6358,-0.6358,-0.6357,-0.6357,0,-0.6811,-0.6784,-0.6763,-0.6726,-0.6709,-0.6678,-0.6646,-0.6634,-0.6616,-0.6585,-0.6564,-0.6538,-0.6513,-0.6471,-0.6444,-0.6439,-0.6423,-0.6433,-0.6434,-0.6429,-0.6376,-0.6377,-0.6447,-0.6447,-0.6447,-0.6447,-0.6447,-0.6447,-0.6841,-0.6831,-0.6806,-0.6782,-0.6755,-0.6735,-0.672,-0.6697,-0.6672,-0.6645,-0.6625,-0.6598,-0.6562,-0.6532,-0.6509,-0.6497,-0.649,-0.6506,-0.6489,-0.6441,-0.6432,-0.6424,-0.6425,-0.6504,-0.6504,-0.6543,-0.6544,-0.6544]},{"header":{"parameterUnit":"m.s-1","parameterCategory":1,"la1":30.2991,"la2":30.254,"lo1":-89.0895,"lo2":-89.0444,"dy":0.0017,"dx":0.0017,"nx":28,"ny":28,"refTime":"2023-08-03T03:00:00:Z","depth":0,"parameterNumber":3,"parameterNumberName":"V-component_of_WINDS"},"data":[0,0,0,0,0,0,0,0,0,0,0,0,0,0,0,0,0,0,0,0,0,0,0,0,0,0,0,0,0,0,0,0,0,0,0,0,0,0,0,0,0,0,0,0,0,0,0,0,0,0,0,0,0,0,0,0,0,0,3.8771,3.8771,0,3.8735,3.8735,3.8734,3.8707,3.8707,3.8706,3.8706,3.8665,3.8664,3.8664,0,0,0,0,0,0,0,0,0,0,0,0,0,3.8813,3.8812,3.8771,3.8771,3.877,3.8735,3.8735,3.8734,3.8707,3.8707,3.8706,3.8706,3.8666,3.8664,3.8663,0,0,0,0,0,0,0,0,0,0,0,0,0,3.8788,3.8812,3.8771,3.8752,3.875,3.8735,3.8735,3.8734,3.8707,3.8707,3.8706,3.8706,3.8666,3.8665,3.8663,3.8663,0,0,3.8659,3.8659,0,0,0,0,0,0,0,0,3.8789,3.8786,3.8756,3.8754,3.8751,3.8725,3.8734,3.871,3.8707,3.8723,3.8706,3.8706,3.8685,3.8682,3.8676,3.8661,3.8659,3.8659,3.8658,3.8658,3.8658,0,0,0,0,0,0,0,3.8791,3.8787,3.8757,3.8755,3.8753,3.8745,3.8741,3.873,3.8707,3.8722,3.872,3.8716,3.8684,3.8678,3.8675,3.8658,3.8659,3.8658,3.8657,3.8657,3.8641,3.8641,0,0,0,0,0,0,3.8796,3.8789,3.8758,3.8756,3.877,3.8744,3.874,3.8734,3.8707,3.8702,3.8716,3.8715,3.868,3.8677,3.8674,3.8671,3.8658,3.8657,3.8656,3.864,3.8641,3.8641,0,0,0,0,0,0,3.8797,3.8793,3.8759,3.8772,3.8767,3.8744,3.8738,3.8733,3.8727,3.8703,3.8698,3.8714,3.868,3.8675,3.8666,3.8669,3.8656,3.8655,3.864,3.864,3.8641,3.8666,0,0,0,0,0,0,3.8798,3.8794,3.8794,3.8772,3.8766,3.8753,3.8738,3.8733,3.8725,3.8723,3.8699,3.8695,3.8679,3.8668,3.8665,3.8667,3.8654,3.8639,3.864,3.8641,3.8664,3.8667,3.8669,0,0,0,0,0,3.88,3.8802,3.8794,3.8791,3.8766,3.8754,3.875,3.8732,3.8726,3.8725,3.871,3.8696,3.867,3.8667,3.8663,3.8665,3.8639,3.864,3.8641,3.8663,3.8666,3.8669,0,0,0,0,0,0,3.8823,3.8798,3.879,3.8785,3.8772,3.8749,3.8748,3.8736,3.8724,3.8722,3.8699,3.8694,3.8687,3.8675,3.8673,3.8663,3.8653,3.8653,3.8671,3.8674,3.8676,3.8679,3.8653,0,0,0,0,0,3.8828,3.8821,3.8799,3.8796,3.8791,3.8771,3.8764,3.8752,3.8737,3.8731,3.8715,3.8699,3.8688,3.868,3.8668,3.8663,3.8657,3.8662,3.8665,3.8667,3.8667,3.8663,3.8665,3.8644,3.8644,3.8644,0,0,3.8837,3.8823,3.8819,3.8801,3.8789,3.8781,3.8766,3.8758,3.8752,3.8729,3.8719,3.8707,3.8689,3.8682,3.8678,3.8671,3.8672,3.8668,3.867,3.8668,3.8664,3.8666,3.8668,3.8644,3.8644,3.8644,0,0,3.8849,3.8838,3.8835,3.8824,3.8808,3.8794,3.8794,3.8773,3.8765,3.8755,3.8738,3.873,3.871,3.8698,3.8689,3.8699,3.8685,3.8695,3.8707,3.8703,3.8705,3.8706,3.8709,3.8711,3.8695,3.8695,3.8695,0,3.8862,3.8851,3.8834,3.8828,3.882,3.8802,3.8798,3.8787,3.8767,3.8762,3.8756,3.8731,3.8717,3.8707,3.871,3.8703,3.8701,3.8697,3.8706,3.8708,3.8709,3.8711,3.8712,3.8697,3.8696,3.8696,3.8696,0,3.8868,3.886,3.8859,3.8842,3.8834,3.8829,3.8811,3.8805,3.8794,3.8781,3.8771,3.8755,3.8739,3.8736,3.8724,3.8724,3.8721,3.8711,3.8699,3.8712,3.8714,3.8715,3.8698,3.8698,3.8698,3.8697,0,0,3.8892,3.8867,3.8867,3.8859,3.884,3.8833,3.8827,3.8813,3.8808,3.8795,3.8789,3.8773,3.8765,3.8755,3.8742,3.8739,3.8747,3.8729,3.8729,3.8733,3.8745,3.8752,3.8753,3.8739,3.8739,3.8739,3.8746,0,3.8901,3.889,3.8876,3.8869,3.8862,3.8845,3.8839,3.8827,3.8815,3.8806,3.8792,3.8782,3.8772,3.8765,3.8762,3.8747,3.8749,3.8746,3.8731,3.8731,3.8736,3.8754,3.8761,3.8769,3.8747,3.8747,3.8747,0,3.8909,3.8899,3.8892,3.8875,3.8871,3.8866,3.8853,3.8845,3.883,3.8822,3.8812,3.8798,3.879,3.8781,3.8769,3.8767,3.8761,3.8752,3.8752,3.8749,3.8739,3.8751,3.8771,3.8772,3.8748,3.8748,3.8748,0,3.8927,3.8911,3.8905,3.8899,3.8878,3.8876,3.8867,3.8852,3.8845,3.8832,3.8827,3.8814,3.8807,3.8796,3.8779,3.8774,3.8769,3.8758,3.8761,3.8761,3.8759,3.8759,3.8777,3.8757,3.8756,3.8756,3.8756,0,3.8938,3.8934,3.8913,3.8909,3.8905,3.8888,3.8884,3.8873,3.886,3.8853,3.8838,3.8831,3.881,3.8801,3.8787,3.8779,3.8776,3.8768,3.8764,3.8769,3.877,3.8763,3.8762,3.8757,3.8757,3.8757,3.8757,0,3.8956,3.8942,3.8934,3.8916,3.8912,3.8909,3.8893,3.8888,3.8876,3.8868,3.8865,3.8846,3.8834,3.8817,3.88,3.8791,3.8784,3.8779,3.879,3.8787,3.8791,3.879,3.8804,3.8805,3.8785,3.8785,3.8785,0,3.8963,3.896,3.8943,3.8938,3.893,3.8922,3.8915,3.8899,3.8892,3.8875,3.8872,3.886,3.885,3.8832,3.8816,3.8803,3.8796,3.8802,3.8794,3.8799,3.8795,3.8795,3.8795,3.8804,3.8804,3.8804,3.8804,0,3.8978,3.8971,3.8963,3.8952,3.8945,3.8935,3.8924,3.8921,3.8902,3.8895,3.8884,3.8876,3.886,3.8848,3.8833,3.8822,3.881,3.8808,3.8807,3.8811,3.8817,3.8813,3.8794,3.8807,3.8806,3.8806,3.8806,3.8806,3.899,3.8987,3.8974,3.8965,3.8956,3.8947,3.8942,3.893,3.8921,3.8907,3.8898,3.8888,3.8873,3.8852,3.8842,3.8833,3.8828,3.8827,3.8827,3.8827,3.8829,3.882,3.883,3.883,3.883,3.883,3.883,0,3.9003,3.8994,3.8986,3.8973,3.8966,3.8957,3.8945,3.8939,3.8931,3.8919,3.891,3.8897,3.8885,3.8869,3.8856,3.8852,3.8846,3.8849,3.8848,3.8846,3.8834,3.8836,3.8854,3.8854,3.8854,3.8854,3.8854,3.8854,3.9008,3.9002,3.8995,3.8984,3.8975,3.8966,3.896,3.8951,3.8942,3.8929,3.892,3.891,3.8896,3.8882,3.8871,3.8867,3.8862,3.8867,3.886,3.8849,3.8847,3.8845,3.8846,3.8866,3.8866,3.8873,3.8873,3.8873]}]]